Stations météo

réclame
Mon MeteoGroup
Herstmonceux, Grande-Bretagne (3882): Température de l'air & dewpoint: 19.01.2020 00:00:00 - 25.01.2020 00:00:00 (GMT)Herstmonceux, Grande-Bretagne (3882): Température de l'air -20cm & Température de l'air -100cm: 19.01.2020 00:00:00 - 25.01.2020 00:00:00 (GMT)Herstmonceux, Grande-Bretagne (3882): Vitesse du vent: 19.01.2020 00:00:00 - 25.01.2020 00:00:00 (GMT)Herstmonceux, Grande-Bretagne (3882): Direction du vent: 19.01.2020 00:00:00 - 25.01.2020 00:00:00 (GMT)Herstmonceux, Grande-Bretagne (3882): reduced air pressure: 19.01.2020 00:00:00 - 25.01.2020 00:00:00 (GMT)Herstmonceux, Grande-Bretagne (3882): visibility: 19.01.2020 00:00:00 - 25.01.2020 00:00:00 (GMT)Herstmonceux, Grande-Bretagne (3882): Ensoleillement: 19.01.2020 00:00:00 - 25.01.2020 00:00:00 (GMT)Herstmonceux, Grande-Bretagne (3882): Quantités de précipitations: 19.01.2020 00:00:00 - 25.01.2020 00:00:00 (GMT)
Date & Time tt [°C] td [°C] tt -20cm [°C] tt -100cm [°C] ff [km/h] ff [knt] dd ppp [hPa] vv [km] sd [min] rr [mm]
25.01.2020 00:00:00 5,1 4,0 - - 4 2 SSE 1021,6 5 - 0,0
24.01.2020 23:00:00 5,2 4,0 - - 2 1 SSE 1021,8 5 0 0,0
24.01.2020 22:00:00 5,3 4,2 - - 2 1 S 1022,1 4,7 0 0,0
24.01.2020 21:00:00 5,4 4,2 - - 5 3 S 1022,3 5 0 0,0
24.01.2020 20:00:00 5,4 3,5 - - 2 1 SSW 1022,5 11 0 0,0
24.01.2020 19:00:00 5,5 3,1 - - 0 0 N 1022,3 28 0 0,0
24.01.2020 18:00:00 5,7 3,0 - - 2 1 NNW 1022,1 24 0 0,0
24.01.2020 17:00:00 6,0 2,8 - - 2 1 NNW 1021,7 45 0 0,0
24.01.2020 16:00:00 6,5 2,4 - - 2 1 NNE 1021,8 50 0 0,0
24.01.2020 15:00:00 6,8 2,9 - - 2 1 NNE 1021,8 45 0 0,0
24.01.2020 14:00:00 6,8 2,3 - - 4 2 ENE 1022,2 50 0 0,0
24.01.2020 13:00:00 6,9 2,1 - - 5 3 NE 1023,0 50 0 0,0
24.01.2020 12:00:00 7,2 2,1 - - 4 2 ENE 1023,4 45 0 0,0
24.01.2020 11:00:00 6,6 2,9 - - 2 1 NE 1023,9 35 0 0,0
24.01.2020 10:00:00 5,8 3,4 - - 2 1 ENE 1023,6 27 0 0,0
24.01.2020 09:00:00 5,3 3,3 6,4 7,9 4 2 N 1023,8 40 0 0,0
24.01.2020 08:00:00 5,3 3,7 - - 5 3 N 1023,4 17 0 0,0
24.01.2020 07:00:00 5,0 4,3 - - 2 1 ENE 1023,2 8 0 0,0
24.01.2020 06:00:00 5,1 4,4 - - 4 2 ENE 1023,1 10 0 0,0
24.01.2020 05:00:00 5,2 4,3 - - 2 1 NNE 1023,3 11 0 0,0
24.01.2020 04:00:00 5,5 4,4 - - 4 2 NNE 1023,6 13 0 0,0
24.01.2020 03:00:00 5,3 4,2 - - 4 2 NNE 1024,1 14 0 0,0
24.01.2020 02:00:00 5,7 4,2 - - 5 3 NNE 1024,5 30 0 0,0
24.01.2020 01:00:00 5,9 4,4 - - 5 3 N 1025,2 30 0 0,0
24.01.2020 00:00:00 6,0 4,2 - - 5 3 NNE 1025,9 40 - 0,0
23.01.2020 23:00:00 6,2 4,3 - - 9 5 NNE 1026,2 45 0 0,0
23.01.2020 22:00:00 6,4 4,3 - - 8 4 NNE 1026,3 19 0 0,0
23.01.2020 21:00:00 6,5 4,3 - - 5 3 NNE 1026,5 21 0 0,0
23.01.2020 20:00:00 6,5 4,9 - - 5 3 NNE 1026,7 13 0 0,0
23.01.2020 19:00:00 6,6 5,2 - - 5 3 NNE 1027,1 8 0 0,0
23.01.2020 18:00:00 6,7 5,4 - - 5 3 NE 1027,5 7 0 0,0
23.01.2020 17:00:00 7,0 5,2 - - 5 3 NE 1027,9 10 0 0,0
23.01.2020 16:00:00 7,6 4,9 - - 4 2 E 1028,1 20 0 0,0
23.01.2020 15:00:00 7,8 4,8 - - 5 3 ENE 1028,6 40 0 0,0
23.01.2020 14:00:00 7,1 4,8 - - 4 2 ENE 1029,5 19 0 0,0
23.01.2020 13:00:00 6,8 4,7 - - 5 3 ENE 1030,4 13 0 0,0
23.01.2020 12:00:00 6,7 4,8 - - 5 3 ENE 1031,4 15 0 0,0
23.01.2020 11:00:00 6,4 4,7 - - 8 4 E 1032,4 13 0 0,0
23.01.2020 10:00:00 6,0 4,6 - - 8 4 E 1032,6 11 0 0,0
23.01.2020 09:00:00 5,6 4,5 5,9 8,0 8 4 E 1032,6 7 0 0,0
23.01.2020 08:00:00 5,6 4,4 - - 8 4 E 1032,9 7 0 0,0
23.01.2020 07:00:00 5,8 4,7 - - 9 5 E 1032,8 8 0 0,0
23.01.2020 06:00:00 5,9 4,8 - - 8 4 E 1033,1 12 0 0,0
23.01.2020 05:00:00 6,0 4,9 - - 8 4 E 1033,4 12 0 0,0
23.01.2020 04:00:00 6,2 4,9 - - 15 8 E 1033,3 15 0 0,0
23.01.2020 03:00:00 6,4 5,0 - - 8 4 E 1034,2 28 0 0,0
23.01.2020 02:00:00 6,3 5,5 - - 8 4 E 1034,7 10 0 0,0
23.01.2020 01:00:00 6,5 5,6 - - 11 6 E 1035,3 16 0 0,0
23.01.2020 00:00:00 6,1 5,6 - - 5 3 E 1035,7 6 - 0,0
22.01.2020 23:00:00 6,0 5,6 - - 5 3 ENE 1035,8 3,8 0 0,0
22.01.2020 22:00:00 6,0 5,5 - - 5 3 E 1036,1 4,3 0 0,0
22.01.2020 21:00:00 6,0 5,5 - - 8 4 NE 1036,1 7 0 0,0
22.01.2020 20:00:00 5,9 5,5 - - 8 4 ENE 1036,4 7 0 0,0
22.01.2020 19:00:00 5,9 5,5 - - 5 3 ENE 1036,2 5 0 0,0
22.01.2020 18:00:00 5,8 5,4 - - 8 4 ENE 1036,1 5 0 0,0
22.01.2020 17:00:00 6,0 5,4 - - 8 4 ENE 1036,3 4,8 0 0,0
22.01.2020 16:00:00 6,2 5,3 - - 8 4 ENE 1036,1 6 0 0,0
22.01.2020 15:00:00 6,4 5,3 - - 8 4 ENE 1036,0 10 0 0,0
22.01.2020 14:00:00 6,1 5,4 - - 8 4 E 1036,4 7 0 0,0
22.01.2020 13:00:00 5,6 5,2 - - 5 3 E 1037,1 5 0 0,0
22.01.2020 12:00:00 5,0 4,9 - - 8 4 ENE 1037,4 6 0 0,0
22.01.2020 11:00:00 4,4 4,4 - - 5 3 ENE 1037,6 4,1 0 0,0
22.01.2020 10:00:00 3,5 3,5 - - 5 3 ENE 1037,6 1,0 0 0,0
22.01.2020 09:00:00 3,2 3,2 5,4 8,2 2 1 E 1037,4 1,6 0 0,0
22.01.2020 08:00:00 2,7 2,7 - - 5 3 NNE 1037,4 3,1 0 0,0
22.01.2020 07:00:00 2,3 2,3 - - 2 1 NE 1037,3 4,2 0 0,2
22.01.2020 06:00:00 2,2 2,2 - - 4 2 NNE 1037,0 7 0 0,0
22.01.2020 05:00:00 0,3 0,3 - - 5 3 NNE 1037,5 6 0 0,0
22.01.2020 04:00:00 0,1 0,1 - - 5 3 N 1037,7 4,7 0 0,0
22.01.2020 03:00:00 -0,3 -0,3 - - 2 1 NNW 1038,2 4,7 0 0,0
22.01.2020 02:00:00 -0,7 -0,9 - - 0 0 N 1038,8 2,3 0 0,0
22.01.2020 01:00:00 0,3 0,0 - - 4 2 N 1039,0 5 0 0,0
22.01.2020 00:00:00 1,3 1,2 - - 5 3 N 1039,5 9 - 0,0
21.01.2020 23:00:00 0,3 0,0 - - 4 2 NNW 1039,6 4,0 0 0,0
21.01.2020 22:00:00 1,2 0,9 - - 2 1 WNW 1039,5 4,8 0 0,0
21.01.2020 21:00:00 2,2 1,9 - - 8 4 NW 1039,8 8 0 0,0
21.01.2020 20:00:00 2,4 1,6 - - 4 2 NW 1039,7 7 0 0,0
21.01.2020 19:00:00 3,3 1,9 - - 4 2 NW 1040,0 9 0 0,0
21.01.2020 18:00:00 4,0 2,3 - - 5 3 NNW 1040,0 10 0 0,0
21.01.2020 17:00:00 4,7 1,7 - - 4 2 W 1040,2 16 6 0,0
21.01.2020 16:00:00 7,5 2,2 - - 5 3 W 1040,3 21 60 0,0
21.01.2020 15:00:00 8,7 2,9 - - 5 3 W 1040,3 22 60 0,0
21.01.2020 14:00:00 8,5 1,6 - - 5 3 W 1040,7 35 60 0,0
21.01.2020 13:00:00 7,9 0,3 - - 4 2 WNW 1041,4 40 60 0,0
21.01.2020 12:00:00 7,4 3,2 - - 4 2 W 1042,1 22 60 0,0
21.01.2020 11:00:00 6,3 2,9 - - 4 2 SSW 1042,7 15 36 0,0
21.01.2020 10:00:00 2,5 2,2 - - 4 2 NNE 1042,8 21 0 0,0
21.01.2020 09:00:00 0,3 -0,1 5,7 8,4 4 2 NE 1042,5 11 0 0,0
21.01.2020 08:00:00 0,6 0,0 - - 2 1 S 1042,2 9 0 0,0
21.01.2020 07:00:00 0,9 0,5 - - 4 2 NNE 1042,5 13 0 0,0
21.01.2020 06:00:00 0,5 0,0 - - 4 2 NNE 1042,4 16 0 0,0
21.01.2020 05:00:00 -1,0 -1,6 - - 4 2 NE 1042,5 14 0 0,0
21.01.2020 04:00:00 -0,8 -1,6 - - 4 2 E 1042,9 14 0 0,0
21.01.2020 03:00:00 -0,5 -1,9 - - 0 0 N 1043,2 13 0 0,0
21.01.2020 02:00:00 1,2 -0,9 - - 2 1 NNE 1043,6 24 0 0,0
21.01.2020 01:00:00 2,7 -0,6 - - 5 3 NNE 1044,2 25 0 0,0
21.01.2020 00:00:00 2,0 -1,6 - - 4 2 NNE 1044,8 25 - 0,0
20.01.2020 23:00:00 3,5 -1,8 - - 8 4 N 1044,8 21 0 0,0
20.01.2020 22:00:00 2,4 -1,2 - - 8 4 N 1045,0 22 0 0,0
20.01.2020 21:00:00 1,6 -1,3 - - 5 3 NNE 1045,3 20 0 0,0
20.01.2020 20:00:00 0,6 -1,8 - - 2 1 N 1045,9 11 0 0,0
20.01.2020 19:00:00 1,9 -1,4 - - 2 1 NW 1046,0 12 0 0,0
20.01.2020 18:00:00 2,3 -1,5 - - 2 1 W 1046,3 30 0 0,0
20.01.2020 17:00:00 3,7 -1,5 - - 2 1 WNW 1046,4 40 0 0,0
20.01.2020 16:00:00 6,3 0,1 - - 2 1 W 1046,6 30 0 0,0
20.01.2020 15:00:00 6,9 -0,4 - - 4 2 W 1046,8 35 0 0,0
20.01.2020 14:00:00 7,0 1,5 - - 2 1 WNW 1047,5 24 0 0,0
20.01.2020 13:00:00 7,7 -1,1 - - 4 2 W 1047,8 40 12 0,0
20.01.2020 12:00:00 7,4 0,1 - - 2 1 SSE 1048,5 30 42 0,0
20.01.2020 11:00:00 4,5 1,9 - - 2 1 ENE 1049,0 30 24 0,0
20.01.2020 10:00:00 0,9 -0,2 - - 2 1 WNW 1049,0 15 0 0,0
20.01.2020 09:00:00 0,9 -1,2 6,0 8,7 2 1 SSE 1049,2 22 0 0,0
20.01.2020 08:00:00 0,3 -0,8 - - 5 3 N 1048,9 26 0 0,0
20.01.2020 07:00:00 0,1 -0,4 - - 0 0 N 1048,7 23 0 0,0
20.01.2020 06:00:00 -1,0 -1,9 - - 2 1 W 1048,7 16 0 0,0
20.01.2020 05:00:00 1,1 -0,4 - - 4 2 N 1048,4 27 0 0,0
20.01.2020 04:00:00 0,5 -0,6 - - 5 3 N 1048,6 21 0 0,0
20.01.2020 03:00:00 0,7 0,0 - - 2 1 NW 1048,4 18 0 0,0
20.01.2020 02:00:00 0,1 -1,3 - - 4 2 WSW 1048,4 17 0 0,0
20.01.2020 01:00:00 0,9 -0,1 - - 5 3 NNE 1048,8 16 0 0,0
20.01.2020 00:00:00 1,4 0,1 - - 8 4 N 1049,1 16 - 0,0
19.01.2020 23:00:00 1,0 0,7 - - 5 3 N 1049,1 12 0 0,0
19.01.2020 22:00:00 0,8 0,4 - - 2 1 ESE 1048,9 9 0 0,0
19.01.2020 21:00:00 0,6 -0,7 - - 2 1 S 1048,4 8 0 0,0
19.01.2020 20:00:00 2,5 0,8 - - 5 3 N 1048,0 18 0 0,0
19.01.2020 19:00:00 3,7 1,8 - - 9 5 NNE 1047,7 16 0 0,0
19.01.2020 18:00:00 3,9 1,8 - - 9 5 N 1047,0 17 0 0,0
19.01.2020 17:00:00 4,8 1,6 - - 9 5 NNE 1046,5 17 0 0,0
19.01.2020 16:00:00 6,4 1,6 - - 11 6 NNE 1046,1 22 60 0,0
19.01.2020 15:00:00 7,9 1,7 - - 5 3 NE 1045,0 22 60 0,0
19.01.2020 14:00:00 7,9 1,5 - - 13 7 NNE 1044,5 20 60 0,0
19.01.2020 13:00:00 7,8 1,7 - - 13 7 NNE 1044,3 18 60 0,0
19.01.2020 12:00:00 7,1 1,8 - - 9 5 NNE 1044,1 30 60 0,0
19.01.2020 11:00:00 5,6 1,3 - - 9 5 NNE 1044,0 18 30 0,2
19.01.2020 10:00:00 3,3 1,0 - - 5 3 N 1043,7 23 0 0,0
19.01.2020 09:00:00 0,3 -0,9 6,9 8,7 5 3 WNW 1042,9 30 0 0,0
19.01.2020 08:00:00 1,3 -0,7 - - 8 4 NW 1042,1 35 0 0,0
19.01.2020 07:00:00 1,0 -0,8 - - 8 4 NNW 1041,0 35 0 0,0
19.01.2020 06:00:00 1,4 -0,3 - - 8 4 N 1039,9 30 0 0,0
19.01.2020 05:00:00 0,6 -0,7 - - 4 2 N 1039,1 24 0 0,0
19.01.2020 04:00:00 0,8 -0,7 - - 4 2 NNW 1038,5 23 0 0,0
19.01.2020 03:00:00 1,7 0,0 - - 8 4 NNW 1038,0 23 0 0,0
19.01.2020 02:00:00 2,4 0,4 - - 8 4 NNW 1037,4 17 0 0,0
19.01.2020 01:00:00 2,4 0,4 - - 8 4 N 1036,2 15 0 0,0
19.01.2020 00:00:00 2,4 0,3 - - 5 3 N 1035,2 18 - 0,0

tt = Température de l'air
td = dewpoint
tt -20cm = Température de l'air -20cm
tt -100cm = Température de l'air -100cm
ff = Vitesse du vent
dd = Direction du vent
ppp = reduced air pressure
vv = visibility
sd = Ensoleillement
rr = Quantités de précipitations

stations d'obs. à proximité